Overview Statistics Trail Chart Weather Telemetry Raw packets
 

This is the latest recevied weather packets stored in our database for station/object IZ8XTV-13. If no packets are shown the sender has not sent any weather packets the latest 10 day(s).

<< 1 2 3 4 5 6 >>
Time Temp. Humidity Pressure Rain* Wind** Luminosity Snow
1778008222 17.22° C 91% 1016.5 hPa 0 mm - - -
1778007609 17.78° C 91% 1016.5 hPa 0 mm - - -
1778006997 17.22° C 90% 1016.3 hPa 0 mm - - -
1778006384 17.22° C 92% 1016.2 hPa 0 mm - - -
1778005772 17.78° C 90% 1016.2 hPa 0 mm - - -
1778005159 17.78° C 93% 1016.1 hPa 0 mm - - -
1778004546 17.78° C 90% 1016.1 hPa 0 mm - - -
1778003935 18.33° C 90% 1016 hPa 0 mm - - -
1778003323 17.78° C 90% 1016 hPa 0 mm - - -
1778002712 18.33° C 89% 1016.1 hPa 0 mm - - -
1778002100 18.33° C 90% 1016.1 hPa 0 mm - - -
1778001489 18.33° C 89% 1016.1 hPa 0 mm - - -
1778000878 18.33° C 90% 1016.3 hPa 0 mm - - -
1778000267 18.33° C 88% 1016.3 hPa 0 mm - - -
1777999655 18.89° C 87% 1016.4 hPa 0 mm - - -
1777999043 18.89° C 86% 1016.5 hPa 0 mm - - -
1777998431 18.89° C 84% 1016.3 hPa 0 mm - - -
1777997817 18.89° C 85% 1016.4 hPa 0 mm - - -
1777997530 18.89° C 85% 1016.5 hPa 0 mm - - -
1777996918 19.44° C 84% 1016.6 hPa 0 mm - - -
1777996306 19.44° C 84% 1016.7 hPa 0 mm - - -
1777995694 19.44° C 83% 1016.7 hPa 0 mm - - -
1777995083 19.44° C 83% 1016.8 hPa 0 mm - - -
1777994470 19.44° C 82% 1016.9 hPa 0 mm - - -
1777993858 20° C 82% 1016.9 hPa 0 mm - - -

* Rain latest hour (hover to see other rain measurements)
** Current wind speed in m/s (hover to see current wind gust speed)